Location: ????????
(48.4751°N, 37.6926°E)
Time: 20:21:16
(UTC+00:00)

Meteor 2-10 Rocket - Pass Details

Date: 20 January 2021
Orbit: 733 x 885 km, 81.2° (Epoch: 01 March)

Event Time Altitude Azimuth Distance (km) Brightness Sun altitude
Rises 15:02:06 0° 352° (N) 3,428 6.7 -8.8°
Reaches altitude 10° 15:04:41 10° 358° (N) 2,466 6.0 -9.2°
Maximum altitude 15:10:03 46° 71° (ENE) 1,084 3.9 -10.0°
Drops below altitude 10° 15:15:09 10° 145° (SE) 2,351 5.9 -10.8°
Sets 15:17:34 0° 151° (SSE) 3,252 6.6 -11.2°
